TimeEST,TemperatureF,Dew PointF,Humidity,Sea Level PressureIn,VisibilityMPH,Wind Direction,Wind SpeedMPH,Gust SpeedMPH,PrecipitationIn,Events,Conditions,WindDirDegrees,DateUTC
12:53 AM,37.9,34.0,86,29.93,6.0,Calm,Calm,-,N/A,,Overcast,0,2013-02-16 05:53:00
1:53 AM,39.9,33.1,77,29.93,9.0,NNW,8.1,-,N/A,,Overcast,340,2013-02-16 06:53:00
2:53 AM,39.0,30.0,70,29.93,10.0,North,8.1,-,N/A,,Overcast,350,2013-02-16 07:53:00
3:53 AM,36.0,30.0,79,29.93,10.0,North,16.1,20.7,0.00,,Overcast,360,2013-02-16 08:53:00
4:19 AM,35.6,30.2,81,29.93,2.5,North,13.8,-,0.00,Snow,Light Snow,360,2013-02-16 09:19:00
4:29 AM,35.6,30.2,81,29.93,3.0,North,12.7,-,0.00,Snow,Light Snow,360,2013-02-16 09:29:00
4:42 AM,35.6,30.2,81,29.92,2.0,North,9.2,-,0.00,Snow,Light Snow,10,2013-02-16 09:42:00
4:45 AM,35.6,30.2,81,29.92,1.8,North,8.1,-,0.01,Snow,Light Snow,10,2013-02-16 09:45:00
4:53 AM,34.0,30.9,89,29.93,1.8,North,8.1,-,0.01,Snow,Light Snow,360,2013-02-16 09:53:00
4:59 AM,35.6,30.2,81,29.93,3.0,North,9.2,-,0.00,Snow,Light Snow,360,2013-02-16 09:59:00
5:08 AM,35.6,30.2,81,29.93,3.0,North,9.2,-,0.00,Snow,Light Snow,360,2013-02-16 10:08:00
5:45 AM,35.6,30.2,81,29.92,9.0,North,10.4,-,0.00,,Overcast,10,2013-02-16 10:45:00
5:53 AM,35.1,30.9,85,29.92,10.0,North,10.4,-,0.00,,Overcast,10,2013-02-16 10:53:00
6:25 AM,35.6,30.2,81,29.94,10.0,NNW,9.2,-,N/A,,Overcast,340,2013-02-16 11:25:00
6:48 AM,35.6,30.2,81,29.94,10.0,North,15.0,20.7,N/A,,Overcast,360,2013-02-16 11:48:00
6:53 AM,35.1,28.9,78,29.94,10.0,North,15.0,-,N/A,,Overcast,360,2013-02-16 11:53:00
7:01 AM,33.8,28.4,81,29.94,10.0,North,16.1,20.7,N/A,,Overcast,350,2013-02-16 12:01:00
7:53 AM,34.0,28.9,82,29.93,10.0,North,13.8,-,N/A,,Overcast,10,2013-02-16 12:53:00
8:53 AM,34.0,26.1,73,29.94,10.0,North,15.0,-,N/A,,Overcast,350,2013-02-16 13:53:00
9:53 AM,35.1,27.0,72,29.93,10.0,North,12.7,21.9,N/A,,Overcast,350,2013-02-16 14:53:00
10:53 AM,35.1,26.1,70,29.92,10.0,North,17.3,25.3,N/A,,Overcast,360,2013-02-16 15:53:00
11:53 AM,36.0,23.0,59,29.91,10.0,North,13.8,-,N/A,,Overcast,10,2013-02-16 16:53:00
12:53 PM,37.0,21.9,54,29.89,10.0,North,11.5,-,N/A,,Overcast,10,2013-02-16 17:53:00
1:53 PM,37.9,21.0,51,29.87,10.0,North,6.9,-,N/A,,Overcast,10,2013-02-16 18:53:00
2:53 PM,39.0,21.0,49,29.84,10.0,NNE,8.1,-,N/A,,Overcast,30,2013-02-16 19:53:00
3:53 PM,39.9,18.0,41,29.83,10.0,NNW,6.9,-,N/A,,Overcast,330,2013-02-16 20:53:00
4:53 PM,39.9,18.0,41,29.83,10.0,NW,8.1,-,N/A,,Overcast,320,2013-02-16 21:53:00
5:53 PM,37.0,18.0,46,29.82,10.0,NNW,8.1,-,N/A,,Overcast,340,2013-02-16 22:53:00
6:53 PM,36.0,18.0,48,29.82,10.0,NNW,3.5,-,N/A,,Overcast,330,2013-02-16 23:53:00
7:53 PM,35.1,17.1,48,29.82,10.0,North,5.8,-,N/A,,Overcast,350,2013-02-17 00:53:00
8:53 PM,34.0,21.0,59,29.80,10.0,North,10.4,18.4,0.00,,Overcast,350,2013-02-17 01:53:00
9:53 PM,33.1,19.9,59,29.77,10.0,North,13.8,19.6,N/A,,Overcast,360,2013-02-17 02:53:00
10:53 PM,32.0,19.9,61,29.74,10.0,North,13.8,-,N/A,,Overcast,360,2013-02-17 03:53:00
11:53 PM,30.9,23.0,72,29.70,5.0,North,10.4,-,0.00,Snow,Light Snow,350,2013-02-17 04:53:00